Location: Unspecified
(0.0000°N, 0.0000°E)
Time: 10:57:02
(UTC+00:00)

Vanguard 3 - All Passes

Search period start: 23 January 2021 00:00
Search period end: 02 February 2021 00:00
Orbit: 508 x 3262 km, 33.3° (Epoch: 22 January)

Date Brightness Start Highest point End Pass type
(mag) Time Alt. Az. Time Alt. Az. Time Alt. Az.
23 Jan - 00:58:00 10° W 01:01:04 22° NNW 01:04:53 10° NNE night (unlit)
23 Jan - 07:41:48 10° NNW 07:52:04 22° NNE 08:04:55 10° ENE daylight
23 Jan - 09:53:00 10° NW 10:10:00 55° NE 10:28:55 10° ESE daylight
23 Jan - 12:07:52 10° WNW 12:27:35 71° SW 12:44:38 10° SE daylight
23 Jan - 14:29:34 10° W 14:44:37 28° SW 14:56:02 10° SSE daylight
23 Jan - 23:43:32 10° WSW 23:47:12 63° NW 23:51:11 10° NE night (unlit)
24 Jan - 06:30:04 10° N 06:34:32 12° NNE 06:39:40 10° NE daylight
24 Jan - 08:38:35 10° NNW 08:52:31 37° NE 09:09:59 10° E daylight
24 Jan - 10:51:19 10° NW 11:09:59 85° NE 11:28:59 10° SE daylight
24 Jan - 13:09:03 10° WNW 13:27:26 44° SW 13:42:20 10° SSE daylight
24 Jan - 15:36:46 10° WSW 15:45:06 15° SSW 15:51:56 10° S daylight
24 Jan - 22:29:44 10° SW 22:33:36 36° SSE 22:37:00 10° ENE night (unlit)
25 Jan - 00:42:56 10° WNW 00:45:08 15° NNW 00:47:34 10° N night (unlit)
25 Jan - 07:25:10 10° NNW 07:35:18 23° NNE 07:48:30 10° ENE daylight
25 Jan - 09:36:01 10° NW 09:52:25 61° NE 10:11:57 10° ESE daylight
25 Jan - 11:50:50 10° WNW 12:09:56 64° SW 12:27:37 10° SE daylight
25 Jan - 14:12:59 10° W 14:27:41 26° SSW 14:39:20 10° SSE daylight
25 Jan - 21:16:27 10° SSW 21:19:28 16° SSE 21:21:58 10° ESE visible
25 Jan - 23:27:36 10° WSW 23:31:11 39° NW 23:34:47 10° NE night (unlit)
26 Jan - 06:13:46 10° N 06:18:17 12° NNE 06:23:33 10° NE daylight
26 Jan - 08:21:46 10° NNW 08:35:14 41° NE 08:53:06 10° E daylight
26 Jan - 10:34:20 10° NW 10:52:16 88° SW 11:11:52 10° SE daylight
26 Jan - 12:52:16 10° W 13:10:05 40° SW 13:25:24 10° SSE daylight
26 Jan - 15:20:33 10° SW 15:28:45 15° SSW 15:35:35 10° S daylight
26 Jan - 22:13:09 10° SW 22:17:36 58° SSE 22:21:13 10° ENE visible
27 Jan - 07:08:33 10° NNW 07:18:28 25° NE 07:31:55 10° E daylight
27 Jan - 09:19:10 10° NW 09:34:49 68° NE 09:54:46 10° ESE daylight
27 Jan - 11:33:59 10° WNW 11:52:19 58° SW 12:10:30 10° SE daylight
27 Jan - 13:56:35 10° WSW 14:10:49 24° SSW 14:22:35 10° SSE daylight
27 Jan - 20:59:00 10° SSW 21:03:33 24° SSE 21:06:57 10° E visible
27 Jan - 23:11:46 10° W 23:15:09 26° NW 23:18:17 10° NNE night (unlit)
28 Jan - 05:57:17 10° N 06:01:57 13° NNE 06:07:30 10° NE daylight
28 Jan - 08:05:03 10° NNW 08:17:56 45° NE 08:36:02 10° ESE daylight
28 Jan - 10:17:32 10° WNW 10:34:35 80° SW 10:54:34 10° SE daylight
28 Jan - 12:35:41 10° W 12:52:48 36° SSW 13:08:21 10° SSE daylight
28 Jan - 15:04:18 10° SW 15:12:28 14° SSW 15:19:23 10° S daylight
28 Jan - 19:44:56 10° SSW 19:48:43 15° SSE 19:51:43 10° SE visible
28 Jan - 21:56:35 10° SW 22:01:36 90° E 22:05:19 10° NE visible
29 Jan - 06:51:58 10° NNW 07:01:36 27° NE 07:15:12 10° E daylight
29 Jan - 09:02:27 10° NW 09:17:15 75° NE 09:37:26 10° ESE daylight
29 Jan - 11:17:20 10° WNW 11:34:47 52° SW 11:53:13 10° SE daylight
29 Jan - 13:40:20 10° WSW 13:54:03 22° SSW 14:05:50 10° SSE daylight
29 Jan - 18:30:45 10° S 18:33:04 11° S 18:35:07 10° SSE visible
29 Jan - 20:41:45 10° SW 20:47:37 35° SSE 20:51:35 10° E visible
29 Jan - 22:56:04 10° W 22:59:02 19° NW 23:01:42 10° N night (unlit)
30 Jan - 05:40:44 10° N 05:45:33 14° NE 05:51:27 10° ENE visible
30 Jan - 07:48:26 10° NW 08:00:37 50° NE 08:18:47 10° ESE daylight
30 Jan - 10:00:54 10° WNW 10:17:00 72° SW 10:37:07 10° SE daylight
30 Jan - 12:19:18 10° W 12:35:38 33° SSW 12:51:14 10° SSE daylight
30 Jan - 14:47:54 10° SW 14:56:14 14° SSW 15:03:24 10° SSE daylight
30 Jan - 17:15:16 10° S 17:16:27 10° S 17:17:34 10° S daylight
30 Jan - 19:26:49 10° SSW 19:32:51 21° SSE 19:37:03 10° ESE visible
30 Jan - 21:40:02 10° WSW 21:45:30 62° NW 21:49:19 10° NE visible
31 Jan - 06:35:27 10° NNW 06:44:41 30° NE 06:58:20 10° E daylight
31 Jan - 08:45:52 10° NW 08:59:45 82° NE 09:19:55 10° SE daylight
31 Jan - 11:00:52 10° W 11:17:23 47° SSW 11:35:47 10° SE daylight
31 Jan - 13:24:13 10° WSW 13:37:24 21° SSW 13:49:06 10° SSE daylight
31 Jan - 15:54:35 10° SSW 15:58:46 11° S 16:02:28 10° SSE daylight
31 Jan - 18:11:26 10° SSW 18:17:12 16° SSE 18:21:34 10° SE daylight
31 Jan - 20:24:32 10° SW 20:31:37 52° SSE 20:36:00 10° ENE visible
31 Jan - 22:40:34 10° WNW 22:42:52 14° NW 22:44:56 10° N night (unlit)
01 Feb - 05:24:08 10° N 05:29:06 14° NE 05:35:20 10° ENE visible
01 Feb - 07:31:56 10° NW 07:43:21 56° NE 08:01:24 10° ESE daylight
01 Feb - 09:44:26 10° WNW 09:59:32 65° SW 10:19:30 10° SE daylight
01 Feb - 12:03:08 10° W 12:18:36 30° SSW 12:34:02 10° SSE daylight
01 Feb - 14:31:20 10° SW 14:40:04 15° S 14:47:36 10° SSE daylight
01 Feb - 16:54:54 10° SSW 17:00:35 13° S 17:05:11 10° SE daylight
01 Feb - 19:08:58 10° SSW 19:16:53 30° SSE 19:21:55 10° E visible
01 Feb - 21:23:31 10° WSW 21:29:20 45° NW 21:33:16 10° NE visible
